Weather History for Hettinger, ND

Change the Weather History Date:

Thursday, January 30, 2014

  Actual Average Record
Temperature  
Mean Temperature 5 °F -  
Max Temperature 15 °F 29 °F 52 °F (1998)
Min Temperature -6 °F 7 °F -16 °F (2002)
Degree Days  
Heating Degree Days 60 47  
Month to date heating degree days 1406 1452  
Since 1 July heating degree days 5128 5031  
Moisture  
Dew Point 1 °F    
Average Humidity 79    
Maximum Humidity 87    
Minimum Humidity 67    
Precipitation  
Precipitation T in 0.01 in 0.02 in (2011)
Month to date precipitation 0.14 0.30  
Year to date precipitation 0.14 0.30  
Sea Level Pressure  
Sea Level Pressure 29.86 in    
Wind  
Wind Speed 13 mph (NW)    
Max Wind Speed 23 mph    
Max Gust Speed 27 mph    
Visibility 7 miles    
Events Snow    
T = Trace of Precipitation, MM = Missing Value Source: NWS Daily Summary

Daily Weather History Graph

Daily Weather History Graph

Search for Another Location

Airport:

Trip Planner

Search our weather history database for the weather conditions in past years. The results will help you decide how hot, cold, wet, or windy it might be!

Date:

Astronomy

Jan. 30, 2014 Rise Set
Actual Time 7:15 AM MST 4:53 PM MST
Civil Twilight 6:43 AM MST 5:25 PM MST
Nautical Twilight 6:07 AM MST 6:01 PM MST
Astronomical Twilight 5:32 AM MST 6:36 PM MST
Moon 6:40 AM MST (1/30) 5:11 PM MST (1/30)
Length of Visible Light 10h 42m
Length of Day
9h 37m
Waning Crescent, 0% of the Moon is Illuminated
Jan 30
Waning Crescent
Jan 30
New
Feb 6
First Quarter
Feb 14
Full
Feb 22
Last Quarter

Hourly Weather History & Observations

Time (MST) Temp. Windchill Dew Point Humidity Pressure Visibility Wind Dir Wind Speed Gust Speed Precip Events Conditions
12:11 AM 14.0 °F -0.2 °F 10.0 °F 84% 29.53 in 1.5 mi North 12.7 mph - 0.00 in Snow Light Snow
12:20 AM 14.0 °F -0.8 °F 10.0 °F 84% 29.53 in 3.0 mi North 13.8 mph - 0.00 in Snow Light Snow
12:36 AM 14.0 °F 0.5 °F 10.0 °F 84% 29.53 in 2.5 mi North 11.5 mph - 0.00 in Snow Light Snow
12:53 AM 12.9 °F -2.8 °F 9.0 °F 84% 29.63 in 2.5 mi North 15.0 mph - 0.00 in Snow Light Snow
1:26 AM 12.9 °F -3.9 °F 8.1 °F 81% 29.56 in 3.0 mi North 17.3 mph - 0.00 in Snow Light Snow
1:50 AM 12.2 °F -5.8 °F 6.8 °F 79% 29.57 in 1.8 mi North 19.6 mph 25.3 mph 0.00 in Snow Light Snow
1:51 AM 10.9 °F -7.0 °F 7.0 °F 84% 29.67 in 1.8 mi North 18.4 mph 25.3 mph 0.00 in Snow Light Snow
2:03 AM 10.9 °F -5.4 °F 7.0 °F 84% 29.58 in 2.5 mi North 15.0 mph - 0.00 in Snow Light Snow
2:06 AM 10.9 °F -5.4 °F 7.0 °F 84% 29.59 in 3.0 mi North 15.0 mph - 0.00 in Snow Light Snow
2:18 AM 10.0 °F -7.1 °F 6.1 °F 84% 29.60 in 3.0 mi North 16.1 mph - 0.00 in Snow Light Snow
2:27 AM 10.0 °F -8.1 °F 5.0 °F 80% 29.61 in 2.5 mi North 18.4 mph - 0.00 in Snow Light Snow
2:35 AM 9.0 °F -9.5 °F 3.9 °F 80% 29.62 in 3.0 mi North 18.4 mph - 0.00 in Snow Light Snow
2:53 AM 8.1 °F -7.7 °F 3.0 °F 80% 29.73 in 4.0 mi North 12.7 mph - 0.00 in Snow Light Snow
3:24 AM 7.0 °F -9.1 °F 3.0 °F 84% 29.65 in 4.0 mi NNW 12.7 mph - 0.00 in   Scattered Clouds
3:53 AM 5.0 °F -4.1 °F 1.0 °F 84% 29.79 in 4.0 mi WNW 4.6 mph - 0.00 in Snow Light Snow
4:53 AM 3.9 °F -9.4 °F -0.0 °F 84% 29.84 in 5.0 mi NW 8.1 mph - 0.00 in   Mostly Cloudy
5:53 AM -0.0 °F -13.0 °F -4.0 °F 83% 29.89 in 5.0 mi NW 6.9 mph - N/A   Scattered Clouds
6:53 AM 1.9 °F -13.8 °F -2.9 °F 80% 29.91 in 5.0 mi NW 10.4 mph - N/A   Haze
7:53 AM 3.0 °F -14.1 °F -0.9 °F 84% 29.94 in 4.0 mi NW 12.7 mph - N/A   Overcast
8:53 AM 3.9 °F -10.4 °F -0.9 °F 80% 29.99 in 4.0 mi WNW 9.2 mph - N/A   Haze
9:53 AM 7.0 °F -9.8 °F 1.0 °F 77% 30.00 in 4.0 mi NW 13.8 mph - N/A   Haze
10:53 AM 9.0 °F -7.3 °F 1.9 °F 73% 30.02 in 10.0 mi WNW 13.8 mph - N/A   Overcast
11:53 AM 8.1 °F -9.0 °F 1.0 °F 73% 30.02 in 10.0 mi WNW 15.0 mph - N/A   Partly Cloudy
12:53 PM 9.0 °F -9.5 °F 1.9 °F 73% 30.01 in 10.0 mi WNW 18.4 mph - N/A   Clear
1:22 PM 10.9 °F -6.5 °F 3.0 °F 70% 29.86 in 10.0 mi WNW 17.3 mph - N/A   Mostly Cloudy
1:53 PM 12.0 °F -6.9 °F 3.0 °F 67% 30.01 in 10.0 mi WNW 21.9 mph - N/A   Overcast
2:53 PM 10.9 °F -7.5 °F 3.0 °F 70% 30.03 in 10.0 mi WNW 19.6 mph - N/A   Mostly Cloudy
3:53 PM 9.0 °F -9.5 °F 1.0 °F 70% 30.05 in 10.0 mi WNW 18.4 mph - 0.00 in   Mostly Cloudy
4:53 PM 8.1 °F -7.0 °F 1.0 °F 73% 30.06 in 10.0 mi West 11.5 mph - N/A   Overcast
5:34 PM 6.1 °F -9.5 °F -0.0 °F 76% 29.90 in 10.0 mi WSW 11.5 mph - N/A   Scattered Clouds
5:53 PM 3.9 °F -11.3 °F -2.0 °F 76% 30.10 in 10.0 mi West 10.4 mph - N/A   Partly Cloudy
6:06 PM 3.9 °F -13.0 °F -2.0 °F 76% 29.91 in 10.0 mi West 12.7 mph - N/A   Mostly Cloudy
6:14 PM 3.9 °F -12.2 °F -2.0 °F 76% 29.91 in 10.0 mi West 11.5 mph - N/A   Scattered Clouds
6:53 PM 3.9 °F -16.1 °F -2.9 °F 73% 30.11 in 10.0 mi WNW 18.4 mph - N/A   Clear
7:53 PM 1.9 °F -18.7 °F -5.1 °F 72% 30.11 in 10.0 mi WNW 18.4 mph - N/A   Clear
8:53 PM 1.0 °F -18.0 °F -5.1 °F 75% 30.12 in 10.0 mi WNW 15.0 mph - N/A   Clear
9:24 PM -0.9 °F -15.3 °F -6.0 °F 79% 29.94 in 10.0 mi WNW 8.1 mph - N/A   Mostly Cloudy
9:49 PM -4.0 °F -17.8 °F -7.6 °F 85% 29.93 in 10.0 mi West 6.9 mph - N/A   Scattered Clouds
9:53 PM -2.9 °F -17.7 °F -8.0 °F 79% 30.12 in 10.0 mi West 8.1 mph - N/A   Partly Cloudy
10:53 PM -2.9 °F -15.0 °F -8.0 °F 79% 30.10 in 10.0 mi NW 5.8 mph - N/A   Clear
11:53 PM -2.0 °F -13.9 °F -6.0 °F 83% 30.09 in 10.0 mi West 5.8 mph - N/A   Clear